Flag for Canada Weather past 2 weeks in Happy Valley-Goose Bay, Newfoundland and Labrador, Canada

Now
64 °F

Passing clouds.


Feels Like: 64 °F
Forecast: 57 / 77 °F
Wind: 2 mph from Southwest

Location: Goose

Current Time: Jul 31, 2014 at 1:35:05 AM

Latest Report: Jul 31, 2014 at 1:00 AM


Visibility: 15 mi

Pressure: 30.05 "Hg

Humidity: 60%

Dew point: 50 °F

Location of Happy Valley-Goose BayLocation

Historic Weather in Happy Valley-Goose Bay — Graph

°F

Happy Valley-Goose Bay temperature yesterday

Maximum temperature yesterday: 79 °F (at 4:00 PM)
Minimum temperature yesterday: 66 °F (at 8:00 AM)
Average temperature yesterday: 72 °F

Past Weeks' High & Low Weather Summary

 TemperatureHumidityPressure
High90 °F (Jul 21, 2:00 PM)94% (Jul 18, 1:00 AM)30.13 "Hg (Jul 18, 1:00 AM)
Low45 °F (Jul 19, 6:00 AM)26% (Jul 21, 3:00 PM)29.26 "Hg (Jul 23, 8:00 PM)
Average66 °F63%29.79 "Hg
* Reported Midnight between Jul 15 and Jul 16 — Midnight between Jul 30 and Jul 31, Happy Valley-Goose Bay, Weather by CustomWeather, © 2014

Note: Actual official high and low records may vary slightly from our data, if they occured in-between our weather recording intervals... More about our weather records

Advertising

Happy Valley-Goose Bay weather history for previous 24 hours

 ConditionsComfort  
Time TempWeatherWind HumidityBarometerVisibility
12:00 AM
Jul 31
66 °FPassing clouds.No wind56%30.04 "Hg15 mi
11:00 PM
Jul 30
66 °FPartly cloudy.5 mph56%30.03 "Hg15 mi
10:00 PM68 °FOvercast.3 mph49%30.02 "Hg15 mi
9:00 PM73 °FOvercast.5 mph38%30.01 "Hg15 mi
8:00 PM75 °FOvercast.5 mph39%30.00 "Hg15 mi
7:00 PM77 °FOvercast.9 mph34%29.98 "Hg15 mi
6:00 PM79 °FPartly sunny.16 mph32%29.97 "Hg15 mi
5:00 PM79 °FPassing clouds.18 mph34%29.96 "Hg15 mi
4:00 PM79 °FPassing clouds.20 mph32%29.94 "Hg15 mi
3:00 PM77 °FPassing clouds.14 mph36%29.93 "Hg15 mi
2:00 PM77 °FPassing clouds.17 mph36%29.92 "Hg15 mi
1:00 PM75 °FPassing clouds.12 mph44%29.91 "Hg15 mi
12:00 PM72 °FPassing clouds.23 mph50%29.91 "Hg15 mi
11:00 AM70 °FScattered clouds.22 mph50%29.90 "Hg15 mi
10:00 AM68 °FPartly sunny.17 mph56%29.89 "Hg15 mi
9:00 AM66 °FPartly sunny.20 mph60%29.88 "Hg15 mi
8:00 AM66 °FPartly sunny.22 mph64%29.84 "Hg15 mi
7:00 AM68 °FPartly sunny.17 mph64%29.81 "Hg15 mi
6:00 AM68 °FPartly cloudy.17 mph60%29.79 "Hg15 mi
5:00 AM70 °FPassing clouds.13 mph69%29.75 "Hg15 mi
4:00 AM70 °FPassing clouds.10 mph69%29.73 "Hg15 mi
3:00 AM70 °FPassing clouds.9 mph69%29.72 "Hg15 mi
2:00 AM72 °FPassing clouds.16 mph65%29.71 "Hg15 mi
1:00 AM70 °FPassing clouds.6 mph69%29.71 "Hg15 mi
Weather by CustomWeather, © 2014

See weather overviewHow to use our weather pages